owner,sensor,date,latitude,longitude,vertical_datum,sea_water_practical_salinity,qcFlag 
TABS,ioos:station:wmo:42051:1,2016-02-01T00:00:00Z,29.6350,-93.6417,2.0,21.7339,11111222 
TABS,ioos:station:wmo:42051:1,2016-02-01T00:30:00Z,29.6350,-93.6417,2.0,21.4993,11111222 
TABS,ioos:station:wmo:42051:1,2016-02-01T01:00:00Z,29.6350,-93.6417,2.0,20.2402,11111222 
TABS,ioos:station:wmo:42051:1,2016-02-01T01:30:00Z,29.6350,-93.6417,2.0,20.0769,11111222 
TABS,ioos:station:wmo:42051:1,2016-02-01T02:00:00Z,29.6350,-93.6417,2.0,19.9867,11111222 
TABS,ioos:station:wmo:42051:1,2016-02-01T02:30:00Z,29.6350,-93.6417,2.0,20.2989,11111222 
TABS,ioos:station:wmo:42051:1,2016-02-01T03:00:00Z,29.6350,-93.6417,2.0,20.2324,11111222 
TABS,ioos:station:wmo:42051:1,2016-02-01T03:30:00Z,29.6350,-93.6417,2.0,20.3199,11111222 
TABS,ioos:station:wmo:42051:1,2016-02-01T04:00:00Z,29.6350,-93.6417,2.0,20.7662,11111222 
TABS,ioos:station:wmo:42051:1,2016-02-01T04:30:00Z,29.6350,-93.6417,2.0,21.1936,11111222 
TABS,ioos:station:wmo:42051:1,2016-02-01T05:00:00Z,29.6350,-93.6417,2.0,21.6757,11111222 
TABS,ioos:station:wmo:42051:1,2016-02-01T05:30:00Z,29.6350,-93.6417,2.0,21.6855,11111222 
TABS,ioos:station:wmo:42051:1,2016-02-01T06:00:00Z,29.6350,-93.6417,2.0,21.4759,11111222 
TABS,ioos:station:wmo:42051:1,2016-02-01T06:30:00Z,29.6350,-93.6417,2.0,21.0001,11111222 
TABS,ioos:station:wmo:42051:1,2016-02-01T07:00:00Z,29.6350,-93.6417,2.0,21.2666,11111222 
TABS,ioos:station:wmo:42051:1,2016-02-01T07:30:00Z,29.6350,-93.6417,2.0,21.0379,11111222 
TABS,ioos:station:wmo:42051:1,2016-02-01T08:00:00Z,29.6350,-93.6417,2.0,21.3361,11111222 
TABS,ioos:station:wmo:42051:1,2016-02-01T08:30:00Z,29.6350,-93.6417,2.0,21.0516,11111222 
TABS,ioos:station:wmo:42051:1,2016-02-01T09:00:00Z,29.6350,-93.6417,2.0,20.7284,11111222 
TABS,ioos:station:wmo:42051:1,2016-02-01T09:30:00Z,29.6350,-93.6417,2.0,20.6694,11111222 
TABS,ioos:station:wmo:42051:1,2016-02-01T10:00:00Z,29.6350,-93.6417,2.0,20.5781,11111222 
TABS,ioos:station:wmo:42051:1,2016-02-01T10:30:00Z,29.6350,-93.6417,2.0,20.418,11111222 
TABS,ioos:station:wmo:42051:1,2016-02-01T11:00:00Z,29.6350,-93.6417,2.0,20.2734,11111222 
TABS,ioos:station:wmo:42051:1,2016-02-01T11:30:00Z,29.6350,-93.6417,2.0,20.198,11111222 
TABS,ioos:station:wmo:42051:1,2016-02-01T12:00:00Z,29.6350,-93.6417,2.0,20.1149,11111222 
TABS,ioos:station:wmo:42051:1,2016-02-01T12:30:00Z,29.6350,-93.6417,2.0,20.0213,11111222 
TABS,ioos:station:wmo:42051:1,2016-02-01T13:00:00Z,29.6350,-93.6417,2.0,19.9724,11111222 
TABS,ioos:station:wmo:42051:1,2016-02-01T13:30:00Z,29.6350,-93.6417,2.0,19.9297,11111222 
TABS,ioos:station:wmo:42051:1,2016-02-01T14:00:00Z,29.6350,-93.6417,2.0,19.9017,11111222 
TABS,ioos:station:wmo:42051:1,2016-02-01T14:30:00Z,29.6350,-93.6417,2.0,19.8689,11111222 
TABS,ioos:station:wmo:42051:1,2016-02-01T15:00:00Z,29.6350,-93.6417,2.0,19.8869,11111222 
TABS,ioos:station:wmo:42051:1,2016-02-01T15:30:00Z,29.6350,-93.6417,2.0,19.9633,11111222 
TABS,ioos:station:wmo:42051:1,2016-02-01T16:00:00Z,29.6350,-93.6417,2.0,19.9165,11111222 
TABS,ioos:station:wmo:42051:1,2016-02-01T16:30:00Z,29.6350,-93.6417,2.0,19.9688,11111222 
TABS,ioos:station:wmo:42051:1,2016-02-01T17:00:00Z,29.6350,-93.6417,2.0,19.9759,11111222 
TABS,ioos:station:wmo:42051:1,2016-02-01T17:30:00Z,29.6350,-93.6417,2.0,20.0006,11111222 
TABS,ioos:station:wmo:42051:1,2016-02-01T18:00:00Z,29.6350,-93.6417,2.0,19.9578,11111222 
TABS,ioos:station:wmo:42051:1,2016-02-01T18:30:00Z,29.6350,-93.6417,2.0,20.0296,11111222 
TABS,ioos:station:wmo:42051:1,2016-02-01T19:00:00Z,29.6350,-93.6417,2.0,19.9309,11111222 
TABS,ioos:station:wmo:42051:1,2016-02-01T19:30:00Z,29.6350,-93.6417,2.0,19.9261,11111222 
TABS,ioos:station:wmo:42051:1,2016-02-01T20:00:00Z,29.6350,-93.6417,2.0,19.9165,11111222 
TABS,ioos:station:wmo:42051:1,2016-02-01T20:30:00Z,29.6350,-93.6417,2.0,19.9215,11111222 
TABS,ioos:station:wmo:42051:1,2016-02-01T21:00:00Z,29.6350,-93.6417,2.0,19.9615,11111222 
TABS,ioos:station:wmo:42051:1,2016-02-01T21:30:00Z,29.6350,-93.6417,2.0,19.9932,11111222 
TABS,ioos:station:wmo:42051:1,2016-02-01T22:00:00Z,29.6350,-93.6417,2.0,20.1085,11111222 
TABS,ioos:station:wmo:42051:1,2016-02-01T22:30:00Z,29.6350,-93.6417,2.0,20.3642,11111222 
TABS,ioos:station:wmo:42051:1,2016-02-01T23:00:00Z,29.6350,-93.6417,2.0,20.502,11111222 
TABS,ioos:station:wmo:42051:1,2016-02-01T23:30:00Z,29.6350,-93.6417,2.0,20.6406,11111222 
TABS,ioos:station:wmo:42051:1,2016-02-02T00:00:00Z,29.6350,-93.6417,2.0,20.6269,11111222 
TABS,ioos:station:wmo:42051:1,2016-02-02T00:30:00Z,29.6350,-93.6417,2.0,20.6036,11111222 
TABS,ioos:station:wmo:42051:1,2016-02-02T01:00:00Z,29.6350,-93.6417,2.0,20.9437,11111222 
TABS,ioos:station:wmo:42051:1,2016-02-02T01:30:00Z,29.6350,-93.6417,2.0,21.0366,11111222 
TABS,ioos:station:wmo:42051:1,2016-02-02T02:00:00Z,29.6350,-93.6417,2.0,21.2631,11111222 
TABS,ioos:station:wmo:42051:1,2016-02-02T02:30:00Z,29.6350,-93.6417,2.0,21.4475,11111222 
TABS,ioos:station:wmo:42051:1,2016-02-02T03:00:00Z,29.6350,-93.6417,2.0,21.7329,11111222 
TABS,ioos:station:wmo:42051:1,2016-02-02T03:30:00Z,29.6350,-93.6417,2.0,21.8452,11111222 
TABS,ioos:station:wmo:42051:1,2016-02-02T04:00:00Z,29.6350,-93.6417,2.0,22.1132,11111222 
TABS,ioos:station:wmo:42051:1,2016-02-02T04:30:00Z,29.6350,-93.6417,2.0,22.4397,11111222 
TABS,ioos:station:wmo:42051:1,2016-02-02T05:00:00Z,29.6350,-93.6417,2.0,22.6317,11111222 
TABS,ioos:station:wmo:42051:1,2016-02-02T05:30:00Z,29.6350,-93.6417,2.0,22.8103,11111222 
TABS,ioos:station:wmo:42051:1,2016-02-02T06:00:00Z,29.6350,-93.6417,2.0,22.9043,11111222 
TABS,ioos:station:wmo:42051:1,2016-02-02T06:30:00Z,29.6350,-93.6417,2.0,23.1381,11111222 
TABS,ioos:station:wmo:42051:1,2016-02-02T07:00:00Z,29.6350,-93.6417,2.0,23.2031,11111222 
TABS,ioos:station:wmo:42051:1,2016-02-02T07:30:00Z,29.6350,-93.6417,2.0,23.4518,11111222 
TABS,ioos:station:wmo:42051:1,2016-02-02T08:00:00Z,29.6350,-93.6417,2.0,23.7394,11111222 
TABS,ioos:station:wmo:42051:1,2016-02-02T08:30:00Z,29.6350,-93.6417,2.0,23.7302,11111222 
TABS,ioos:station:wmo:42051:1,2016-02-02T09:00:00Z,29.6350,-93.6417,2.0,23.6741,11111222 
TABS,ioos:station:wmo:42051:1,2016-02-02T09:30:00Z,29.6350,-93.6417,2.0,23.6603,11111222 
TABS,ioos:station:wmo:42051:1,2016-02-02T10:00:00Z,29.6350,-93.6417,2.0,23.6614,11111222 
TABS,ioos:station:wmo:42051:1,2016-02-02T10:30:00Z,29.6350,-93.6417,2.0,23.4574,11111222 
TABS,ioos:station:wmo:42051:1,2016-02-02T11:00:00Z,29.6350,-93.6417,2.0,23.1373,11111222 
TABS,ioos:station:wmo:42051:1,2016-02-02T11:30:00Z,29.6350,-93.6417,2.0,22.9946,11111222 
TABS,ioos:station:wmo:42051:1,2016-02-02T12:00:00Z,29.6350,-93.6417,2.0,22.6,11111222 
TABS,ioos:station:wmo:42051:1,2016-02-02T12:30:00Z,29.6350,-93.6417,2.0,22.5204,11111222 
TABS,ioos:station:wmo:42051:1,2016-02-02T13:00:00Z,29.6350,-93.6417,2.0,22.3822,11111222 
TABS,ioos:station:wmo:42051:1,2016-02-02T13:30:00Z,29.6350,-93.6417,2.0,22.3218,11111222 
TABS,ioos:station:wmo:42051:1,2016-02-02T14:00:00Z,29.6350,-93.6417,2.0,22.2923,11111222 
TABS,ioos:station:wmo:42051:1,2016-02-02T14:30:00Z,29.6350,-93.6417,2.0,22.1243,11111222 
TABS,ioos:station:wmo:42051:1,2016-02-02T15:00:00Z,29.6350,-93.6417,2.0,22.025,11111222 
TABS,ioos:station:wmo:42051:1,2016-02-02T15:30:00Z,29.6350,-93.6417,2.0,21.9023,11111222 
TABS,ioos:station:wmo:42051:1,2016-02-02T16:00:00Z,29.6350,-93.6417,2.0,21.9797,11111222 
TABS,ioos:station:wmo:42051:1,2016-02-02T16:30:00Z,29.6350,-93.6417,2.0,22.1652,11111222 
TABS,ioos:station:wmo:42051:1,2016-02-02T17:00:00Z,29.6350,-93.6417,2.0,22.3207,11111222 
TABS,ioos:station:wmo:42051:1,2016-02-02T17:30:00Z,29.6350,-93.6417,2.0,22.2722,11111222 
TABS,ioos:station:wmo:42051:1,2016-02-02T18:00:00Z,29.6350,-93.6417,2.0,22.4382,11111222 
TABS,ioos:station:wmo:42051:1,2016-02-02T18:30:00Z,29.6350,-93.6417,2.0,22.5146,11111222 
TABS,ioos:station:wmo:42051:1,2016-02-02T19:00:00Z,29.6350,-93.6417,2.0,22.6451,11111222 
TABS,ioos:station:wmo:42051:1,2016-02-02T19:30:00Z,29.6350,-93.6417,2.0,22.822,11111222 
TABS,ioos:station:wmo:42051:1,2016-02-02T20:00:00Z,29.6350,-93.6417,2.0,22.894,11111222 
TABS,ioos:station:wmo:42051:1,2016-02-02T20:30:00Z,29.6350,-93.6417,2.0,22.7845,11111222 
TABS,ioos:station:wmo:42051:1,2016-02-02T21:00:00Z,29.6350,-93.6417,2.0,22.6934,11111222 
TABS,ioos:station:wmo:42051:1,2016-02-02T21:30:00Z,29.6350,-93.6417,2.0,22.673,11111222 
TABS,ioos:station:wmo:42051:1,2016-02-02T22:00:00Z,29.6350,-93.6417,2.0,22.6287,11111222 
TABS,ioos:station:wmo:42051:1,2016-02-02T22:30:00Z,29.6350,-93.6417,2.0,22.6828,11111222 
TABS,ioos:station:wmo:42051:1,2016-02-02T23:00:00Z,29.6350,-93.6417,2.0,22.7646,11111222 
TABS,ioos:station:wmo:42051:1,2016-02-02T23:30:00Z,29.6350,-93.6417,2.0,22.8366,11111222 
TABS,ioos:station:wmo:42051:1,2016-02-03T00:00:00Z,29.6350,-93.6417,2.0,22.9362,11111222 
TABS,ioos:station:wmo:42051:1,2016-02-03T00:30:00Z,29.6350,-93.6417,2.0,23.2167,11111222 
TABS,ioos:station:wmo:42051:1,2016-02-03T01:00:00Z,29.6350,-93.6417,2.0,23.3702,11111222 
TABS,ioos:station:wmo:42051:1,2016-02-03T01:30:00Z,29.6350,-93.6417,2.0,23.2198,11111222 
TABS,ioos:station:wmo:42051:1,2016-02-03T02:00:00Z,29.6350,-93.6417,2.0,23.148,11111222 
TABS,ioos:station:wmo:42051:1,2016-02-03T02:30:00Z,29.6350,-93.6417,2.0,22.2636,11111222 
TABS,ioos:station:wmo:42051:1,2016-02-03T03:00:00Z,29.6350,-93.6417,2.0,19.7124,11111222 
TABS,ioos:station:wmo:42051:1,2016-02-03T03:30:00Z,29.6350,-93.6417,2.0,18.4542,11111222 
TABS,ioos:station:wmo:42051:1,2016-02-03T04:00:00Z,29.6350,-93.6417,2.0,21.2105,11111222 
TABS,ioos:station:wmo:42051:1,2016-02-03T04:30:00Z,29.6350,-93.6417,2.0,22.4648,11111222 
TABS,ioos:station:wmo:42051:1,2016-02-03T05:00:00Z,29.6350,-93.6417,2.0,23.2211,11111222 
TABS,ioos:station:wmo:42051:1,2016-02-03T05:30:00Z,29.6350,-93.6417,2.0,23.3046,11111222 
TABS,ioos:station:wmo:42051:1,2016-02-03T06:00:00Z,29.6350,-93.6417,2.0,23.3742,11111222 
TABS,ioos:station:wmo:42051:1,2016-02-03T06:30:00Z,29.6350,-93.6417,2.0,23.2717,11111222 
TABS,ioos:station:wmo:42051:1,2016-02-03T07:00:00Z,29.6350,-93.6417,2.0,23.173,11111222 
TABS,ioos:station:wmo:42051:1,2016-02-03T07:30:00Z,29.6350,-93.6417,2.0,22.9741,11111222 
TABS,ioos:station:wmo:42051:1,2016-02-03T08:00:00Z,29.6350,-93.6417,2.0,22.9576,11111222 
TABS,ioos:station:wmo:42051:1,2016-02-03T08:30:00Z,29.6350,-93.6417,2.0,22.8973,11111222 
TABS,ioos:station:wmo:42051:1,2016-02-03T09:00:00Z,29.6350,-93.6417,2.0,22.8434,11111222 
TABS,ioos:station:wmo:42051:1,2016-02-03T09:30:00Z,29.6350,-93.6417,2.0,22.8575,11111222 
TABS,ioos:station:wmo:42051:1,2016-02-03T10:00:00Z,29.6350,-93.6417,2.0,22.809,11111222 
TABS,ioos:station:wmo:42051:1,2016-02-03T10:30:00Z,29.6350,-93.6417,2.0,22.6325,11111222 
TABS,ioos:station:wmo:42051:1,2016-02-03T11:00:00Z,29.6350,-93.6417,2.0,21.3439,11111222 
TABS,ioos:station:wmo:42051:1,2016-02-03T11:30:00Z,29.6350,-93.6417,2.0,21.58,11111222 
TABS,ioos:station:wmo:42051:1,2016-02-03T12:00:00Z,29.6350,-93.6417,2.0,21.6702,11111222 
TABS,ioos:station:wmo:42051:1,2016-02-03T12:30:00Z,29.6350,-93.6417,2.0,21.2956,11111222 
TABS,ioos:station:wmo:42051:1,2016-02-03T13:00:00Z,29.6350,-93.6417,2.0,20.8214,11111222 
TABS,ioos:station:wmo:42051:1,2016-02-03T13:30:00Z,29.6350,-93.6417,2.0,20.1298,11111222 
TABS,ioos:station:wmo:42051:1,2016-02-03T14:00:00Z,29.6350,-93.6417,2.0,20.9511,11111222 
TABS,ioos:station:wmo:42051:1,2016-02-03T14:30:00Z,29.6350,-93.6417,2.0,19.8828,11111222 
TABS,ioos:station:wmo:42051:1,2016-02-03T15:00:00Z,29.6350,-93.6417,2.0,20.6713,11111222 
TABS,ioos:station:wmo:42051:1,2016-02-03T15:30:00Z,29.6350,-93.6417,2.0,20.9714,11111222 
TABS,ioos:station:wmo:42051:1,2016-02-03T16:00:00Z,29.6350,-93.6417,2.0,20.7753,11111222 
TABS,ioos:station:wmo:42051:1,2016-02-03T16:30:00Z,29.6350,-93.6417,2.0,19.8821,11111222 
TABS,ioos:station:wmo:42051:1,2016-02-03T17:00:00Z,29.6350,-93.6417,2.0,20.9269,11111222 
TABS,ioos:station:wmo:42051:1,2016-02-03T17:30:00Z,29.6350,-93.6417,2.0,21.7965,11111222 
TABS,ioos:station:wmo:42051:1,2016-02-03T18:00:00Z,29.6350,-93.6417,2.0,22.7143,11111222 
TABS,ioos:station:wmo:42051:1,2016-02-03T18:30:00Z,29.6350,-93.6417,2.0,21.2421,11111222 
TABS,ioos:station:wmo:42051:1,2016-02-03T19:00:00Z,29.6350,-93.6417,2.0,21.1885,11111222 
TABS,ioos:station:wmo:42051:1,2016-02-03T19:30:00Z,29.6350,-93.6417,2.0,20.1344,11111222 
TABS,ioos:station:wmo:42051:1,2016-02-03T20:00:00Z,29.6350,-93.6417,2.0,20.2654,11111222 
TABS,ioos:station:wmo:42051:1,2016-02-03T20:30:00Z,29.6350,-93.6417,2.0,21.5986,11111222 
TABS,ioos:station:wmo:42051:1,2016-02-03T21:00:00Z,29.6350,-93.6417,2.0,20.6217,11111222 
TABS,ioos:station:wmo:42051:1,2016-02-03T21:30:00Z,29.6350,-93.6417,2.0,19.5321,11111222 
TABS,ioos:station:wmo:42051:1,2016-02-03T22:00:00Z,29.6350,-93.6417,2.0,19.1601,11111222 
TABS,ioos:station:wmo:42051:1,2016-02-03T22:30:00Z,29.6350,-93.6417,2.0,18.3324,11111222 
TABS,ioos:station:wmo:42051:1,2016-02-03T23:00:00Z,29.6350,-93.6417,2.0,18.1538,11111222 
TABS,ioos:station:wmo:42051:1,2016-02-03T23:30:00Z,29.6350,-93.6417,2.0,18.3969,11111222 
TABS,ioos:station:wmo:42051:1,2016-02-04T00:00:00Z,29.6350,-93.6417,2.0,17.3768,11111222 
TABS,ioos:station:wmo:42051:1,2016-02-04T00:30:00Z,29.6350,-93.6417,2.0,17.0956,11111222 
TABS,ioos:station:wmo:42051:1,2016-02-04T01:00:00Z,29.6350,-93.6417,2.0,16.9881,11111222 
TABS,ioos:station:wmo:42051:1,2016-02-04T01:30:00Z,29.6350,-93.6417,2.0,17.1566,11111222 
TABS,ioos:station:wmo:42051:1,2016-02-04T02:00:00Z,29.6350,-93.6417,2.0,16.9729,11111222 
TABS,ioos:station:wmo:42051:1,2016-02-04T02:30:00Z,29.6350,-93.6417,2.0,17.4723,11111222 
TABS,ioos:station:wmo:42051:1,2016-02-04T03:00:00Z,29.6350,-93.6417,2.0,16.7701,11111222 
TABS,ioos:station:wmo:42051:1,2016-02-04T03:30:00Z,29.6350,-93.6417,2.0,17.0862,11111222 
TABS,ioos:station:wmo:42051:1,2016-02-04T04:00:00Z,29.6350,-93.6417,2.0,17.3641,11111222 
TABS,ioos:station:wmo:42051:1,2016-02-04T04:30:00Z,29.6350,-93.6417,2.0,17.4108,11111222 
TABS,ioos:station:wmo:42051:1,2016-02-04T05:00:00Z,29.6350,-93.6417,2.0,17.3598,11111222 
TABS,ioos:station:wmo:42051:1,2016-02-04T05:30:00Z,29.6350,-93.6417,2.0,17.3972,11111222 
TABS,ioos:station:wmo:42051:1,2016-02-04T06:00:00Z,29.6350,-93.6417,2.0,17.5574,11111222 
TABS,ioos:station:wmo:42051:1,2016-02-04T06:30:00Z,29.6350,-93.6417,2.0,17.1331,11111222 
TABS,ioos:station:wmo:42051:1,2016-02-04T07:00:00Z,29.6350,-93.6417,2.0,17.185,11111222 
TABS,ioos:station:wmo:42051:1,2016-02-04T07:30:00Z,29.6350,-93.6417,2.0,17.5174,11111222 
TABS,ioos:station:wmo:42051:1,2016-02-04T08:00:00Z,29.6350,-93.6417,2.0,17.4378,11111222 
TABS,ioos:station:wmo:42051:1,2016-02-04T08:30:00Z,29.6350,-93.6417,2.0,17.5777,11111222 
TABS,ioos:station:wmo:42051:1,2016-02-04T09:00:00Z,29.6350,-93.6417,2.0,17.4315,11111222 
TABS,ioos:station:wmo:42051:1,2016-02-04T09:30:00Z,29.6350,-93.6417,2.0,17.3228,11111222 
TABS,ioos:station:wmo:42051:1,2016-02-04T10:00:00Z,29.6350,-93.6417,2.0,17.3404,11111222 
TABS,ioos:station:wmo:42051:1,2016-02-04T10:30:00Z,29.6350,-93.6417,2.0,17.2074,11111222 
TABS,ioos:station:wmo:42051:1,2016-02-04T11:00:00Z,29.6350,-93.6417,2.0,17.3251,11111222 
TABS,ioos:station:wmo:42051:1,2016-02-04T11:30:00Z,29.6350,-93.6417,2.0,17.3589,11111222 
TABS,ioos:station:wmo:42051:1,2016-02-04T12:00:00Z,29.6350,-93.6417,2.0,17.4926,11111222 
TABS,ioos:station:wmo:42051:1,2016-02-04T12:30:00Z,29.6350,-93.6417,2.0,17.6621,11111222 
TABS,ioos:station:wmo:42051:1,2016-02-04T13:00:00Z,29.6350,-93.6417,2.0,18.0057,11111222 
TABS,ioos:station:wmo:42051:1,2016-02-04T13:30:00Z,29.6350,-93.6417,2.0,17.9387,11111222 
TABS,ioos:station:wmo:42051:1,2016-02-04T14:00:00Z,29.6350,-93.6417,2.0,18.1057,11111222 
TABS,ioos:station:wmo:42051:1,2016-02-04T14:30:00Z,29.6350,-93.6417,2.0,18.2789,11111222 
TABS,ioos:station:wmo:42051:1,2016-02-04T15:00:00Z,29.6350,-93.6417,2.0,18.3229,11111222 
TABS,ioos:station:wmo:42051:1,2016-02-04T15:30:00Z,29.6350,-93.6417,2.0,18.2989,11111222 
TABS,ioos:station:wmo:42051:1,2016-02-04T16:00:00Z,29.6350,-93.6417,2.0,18.3331,11111222 
TABS,ioos:station:wmo:42051:1,2016-02-04T16:30:00Z,29.6350,-93.6417,2.0,18.3612,11111222 
TABS,ioos:station:wmo:42051:1,2016-02-04T17:00:00Z,29.6350,-93.6417,2.0,18.2178,11111222 
TABS,ioos:station:wmo:42051:1,2016-02-04T17:30:00Z,29.6350,-93.6417,2.0,18.3929,11111222 
TABS,ioos:station:wmo:42051:1,2016-02-04T18:00:00Z,29.6350,-93.6417,2.0,18.2786,11111222 
TABS,ioos:station:wmo:42051:1,2016-02-04T18:30:00Z,29.6350,-93.6417,2.0,18.2922,11111222 
TABS,ioos:station:wmo:42051:1,2016-02-04T19:00:00Z,29.6350,-93.6417,2.0,18.2303,11111222 
TABS,ioos:station:wmo:42051:1,2016-02-04T19:30:00Z,29.6350,-93.6417,2.0,18.2808,11111222 
TABS,ioos:station:wmo:42051:1,2016-02-04T20:00:00Z,29.6350,-93.6417,2.0,18.2968,11111222 
TABS,ioos:station:wmo:42051:1,2016-02-04T20:30:00Z,29.6350,-93.6417,2.0,18.3603,11111222 
TABS,ioos:station:wmo:42051:1,2016-02-04T21:00:00Z,29.6350,-93.6417,2.0,18.3789,11111222 
TABS,ioos:station:wmo:42051:1,2016-02-04T21:30:00Z,29.6350,-93.6417,2.0,18.4304,11111222 
TABS,ioos:station:wmo:42051:1,2016-02-04T22:00:00Z,29.6350,-93.6417,2.0,18.4225,11111222 
TABS,ioos:station:wmo:42051:1,2016-02-04T22:30:00Z,29.6350,-93.6417,2.0,18.4518,11111222 
TABS,ioos:station:wmo:42051:1,2016-02-04T23:00:00Z,29.6350,-93.6417,2.0,18.4735,11111222 
TABS,ioos:station:wmo:42051:1,2016-02-04T23:30:00Z,29.6350,-93.6417,2.0,18.5186,11111222 
TABS,ioos:station:wmo:42051:1,2016-02-05T00:00:00Z,29.6350,-93.6417,2.0,18.544,11111222 
TABS,ioos:station:wmo:42051:1,2016-02-05T00:30:00Z,29.6350,-93.6417,2.0,18.6825,11111222 
TABS,ioos:station:wmo:42051:1,2016-02-05T01:00:00Z,29.6350,-93.6417,2.0,18.7663,11111222 
TABS,ioos:station:wmo:42051:1,2016-02-05T01:30:00Z,29.6350,-93.6417,2.0,18.8267,11111222 
TABS,ioos:station:wmo:42051:1,2016-02-05T02:00:00Z,29.6350,-93.6417,2.0,18.8998,11111222 
TABS,ioos:station:wmo:42051:1,2016-02-05T02:30:00Z,29.6350,-93.6417,2.0,19.0611,11111222 
TABS,ioos:station:wmo:42051:1,2016-02-05T03:00:00Z,29.6350,-93.6417,2.0,19.1499,11111222 
TABS,ioos:station:wmo:42051:1,2016-02-05T03:30:00Z,29.6350,-93.6417,2.0,19.168,11111222 
TABS,ioos:station:wmo:42051:1,2016-02-05T04:00:00Z,29.6350,-93.6417,2.0,19.2505,11111222 
TABS,ioos:station:wmo:42051:1,2016-02-05T04:30:00Z,29.6350,-93.6417,2.0,19.3648,11111222 
TABS,ioos:station:wmo:42051:1,2016-02-05T05:00:00Z,29.6350,-93.6417,2.0,19.4285,11111222 
TABS,ioos:station:wmo:42051:1,2016-02-05T05:30:00Z,29.6350,-93.6417,2.0,19.3798,11111222 
TABS,ioos:station:wmo:42051:1,2016-02-05T06:00:00Z,29.6350,-93.6417,2.0,19.5029,11111222 
TABS,ioos:station:wmo:42051:1,2016-02-05T06:30:00Z,29.6350,-93.6417,2.0,19.5753,11111222 
TABS,ioos:station:wmo:42051:1,2016-02-05T07:00:00Z,29.6350,-93.6417,2.0,19.5377,11111222 
TABS,ioos:station:wmo:42051:1,2016-02-05T07:30:00Z,29.6350,-93.6417,2.0,19.613,11111222 
TABS,ioos:station:wmo:42051:1,2016-02-05T08:00:00Z,29.6350,-93.6417,2.0,19.6795,11111222 
TABS,ioos:station:wmo:42051:1,2016-02-05T08:30:00Z,29.6350,-93.6417,2.0,19.6269,11111222 
TABS,ioos:station:wmo:42051:1,2016-02-05T09:00:00Z,29.6350,-93.6417,2.0,19.587,11111222 
TABS,ioos:station:wmo:42051:1,2016-02-05T09:30:00Z,29.6350,-93.6417,2.0,19.6127,11111222 
TABS,ioos:station:wmo:42051:1,2016-02-05T10:00:00Z,29.6350,-93.6417,2.0,19.6062,11111222 
TABS,ioos:station:wmo:42051:1,2016-02-05T10:30:00Z,29.6350,-93.6417,2.0,19.6306,11111222 
TABS,ioos:station:wmo:42051:1,2016-02-05T11:00:00Z,29.6350,-93.6417,2.0,19.5126,11111222 
TABS,ioos:station:wmo:42051:1,2016-02-05T11:30:00Z,29.6350,-93.6417,2.0,19.6212,11111222 
TABS,ioos:station:wmo:42051:1,2016-02-05T12:00:00Z,29.6350,-93.6417,2.0,19.697,11111222 
TABS,ioos:station:wmo:42051:1,2016-02-05T12:30:00Z,29.6350,-93.6417,2.0,19.8521,11111222 
TABS,ioos:station:wmo:42051:1,2016-02-05T13:00:00Z,29.6350,-93.6417,2.0,19.8916,11111222 
TABS,ioos:station:wmo:42051:1,2016-02-05T13:30:00Z,29.6350,-93.6417,2.0,19.9199,11111222 
TABS,ioos:station:wmo:42051:1,2016-02-05T14:00:00Z,29.6350,-93.6417,2.0,19.9427,11111222 
TABS,ioos:station:wmo:42051:1,2016-02-05T14:30:00Z,29.6350,-93.6417,2.0,20.0718,11111222 
TABS,ioos:station:wmo:42051:1,2016-02-05T15:00:00Z,29.6350,-93.6417,2.0,20.15,11111222 
TABS,ioos:station:wmo:42051:1,2016-02-05T15:30:00Z,29.6350,-93.6417,2.0,20.296,11111222 
TABS,ioos:station:wmo:42051:1,2016-02-05T16:00:00Z,29.6350,-93.6417,2.0,20.3791,11111222 
TABS,ioos:station:wmo:42051:1,2016-02-05T16:30:00Z,29.6350,-93.6417,2.0,20.3746,11111222 
TABS,ioos:station:wmo:42051:1,2016-02-05T17:00:00Z,29.6350,-93.6417,2.0,20.393,11111222 
TABS,ioos:station:wmo:42051:1,2016-02-05T17:30:00Z,29.6350,-93.6417,2.0,20.4724,11111222 
TABS,ioos:station:wmo:42051:1,2016-02-05T18:00:00Z,29.6350,-93.6417,2.0,20.5943,11111222 
TABS,ioos:station:wmo:42051:1,2016-02-05T18:30:00Z,29.6350,-93.6417,2.0,20.681,11111222 
TABS,ioos:station:wmo:42051:1,2016-02-05T19:00:00Z,29.6350,-93.6417,2.0,20.6788,11111222 
TABS,ioos:station:wmo:42051:1,2016-02-05T19:30:00Z,29.6350,-93.6417,2.0,20.7392,11111222 
TABS,ioos:station:wmo:42051:1,2016-02-05T20:00:00Z,29.6350,-93.6417,2.0,20.8191,11111222 
TABS,ioos:station:wmo:42051:1,2016-02-05T20:30:00Z,29.6350,-93.6417,2.0,20.8773,11111222 
TABS,ioos:station:wmo:42051:1,2016-02-05T21:00:00Z,29.6350,-93.6417,2.0,20.856,11111222 
TABS,ioos:station:wmo:42051:1,2016-02-05T21:30:00Z,29.6350,-93.6417,2.0,20.8584,11111222 
TABS,ioos:station:wmo:42051:1,2016-02-05T22:00:00Z,29.6350,-93.6417,2.0,20.8769,11111222 
TABS,ioos:station:wmo:42051:1,2016-02-05T22:30:00Z,29.6350,-93.6417,2.0,20.9003,11111222 
TABS,ioos:station:wmo:42051:1,2016-02-05T23:00:00Z,29.6350,-93.6417,2.0,20.9251,11111222 
TABS,ioos:station:wmo:42051:1,2016-02-05T23:30:00Z,29.6350,-93.6417,2.0,20.9441,11111222 
TABS,ioos:station:wmo:42051:1,2016-02-06T00:00:00Z,29.6350,-93.6417,2.0,20.8941,11111222 
TABS,ioos:station:wmo:42051:1,2016-02-06T00:30:00Z,29.6350,-93.6417,2.0,20.8882,11111222 
TABS,ioos:station:wmo:42051:1,2016-02-06T01:00:00Z,29.6350,-93.6417,2.0,20.8876,11111222 
TABS,ioos:station:wmo:42051:1,2016-02-06T01:30:00Z,29.6350,-93.6417,2.0,20.8886,11111222 
TABS,ioos:station:wmo:42051:1,2016-02-06T02:00:00Z,29.6350,-93.6417,2.0,20.8993,11111222 
TABS,ioos:station:wmo:42051:1,2016-02-06T02:30:00Z,29.6350,-93.6417,2.0,20.9096,11111222 
TABS,ioos:station:wmo:42051:1,2016-02-06T03:00:00Z,29.6350,-93.6417,2.0,20.9189,11111222 
TABS,ioos:station:wmo:42051:1,2016-02-06T03:30:00Z,29.6350,-93.6417,2.0,20.983,11111222 
TABS,ioos:station:wmo:42051:1,2016-02-06T04:00:00Z,29.6350,-93.6417,2.0,20.9782,11111222 
TABS,ioos:station:wmo:42051:1,2016-02-06T04:30:00Z,29.6350,-93.6417,2.0,20.976,11111222 
TABS,ioos:station:wmo:42051:1,2016-02-06T05:00:00Z,29.6350,-93.6417,2.0,20.9747,11111222 
TABS,ioos:station:wmo:42051:1,2016-02-06T05:30:00Z,29.6350,-93.6417,2.0,20.9812,11111222 
TABS,ioos:station:wmo:42051:1,2016-02-06T06:00:00Z,29.6350,-93.6417,2.0,20.9784,11111222 
TABS,ioos:station:wmo:42051:1,2016-02-06T06:30:00Z,29.6350,-93.6417,2.0,20.8112,11111222 
TABS,ioos:station:wmo:42051:1,2016-02-06T07:00:00Z,29.6350,-93.6417,2.0,20.7897,11111222 
TABS,ioos:station:wmo:42051:1,2016-02-06T07:30:00Z,29.6350,-93.6417,2.0,20.8197,11111222 
TABS,ioos:station:wmo:42051:1,2016-02-06T08:00:00Z,29.6350,-93.6417,2.0,20.8506,11111222 
TABS,ioos:station:wmo:42051:1,2016-02-06T08:30:00Z,29.6350,-93.6417,2.0,20.8339,11111222 
TABS,ioos:station:wmo:42051:1,2016-02-06T09:00:00Z,29.6350,-93.6417,2.0,20.8252,11111222 
TABS,ioos:station:wmo:42051:1,2016-02-06T09:30:00Z,29.6350,-93.6417,2.0,20.8238,11111222 
TABS,ioos:station:wmo:42051:1,2016-02-06T10:00:00Z,29.6350,-93.6417,2.0,20.8228,11111222 
TABS,ioos:station:wmo:42051:1,2016-02-06T10:30:00Z,29.6350,-93.6417,2.0,20.8429,11111222 
TABS,ioos:station:wmo:42051:1,2016-02-06T11:00:00Z,29.6350,-93.6417,2.0,20.7442,11111222 
TABS,ioos:station:wmo:42051:1,2016-02-06T11:30:00Z,29.6350,-93.6417,2.0,20.7449,11111222 
TABS,ioos:station:wmo:42051:1,2016-02-06T12:00:00Z,29.6350,-93.6417,2.0,20.7454,11111222 
TABS,ioos:station:wmo:42051:1,2016-02-06T12:30:00Z,29.6350,-93.6417,2.0,20.7663,11111222 